Погода в Дадунхае

Китай     18°13′27″N   109°31′16″E
темп.,
°C
ветер,
м/с
пор.,
м/с
влажн.,
%
обл.,
%
осадки,
мм/ч
давл.,
гПа
погр.,
м
13 мая, чт
чт1323:00+26в249022 0.0 1008258
02:00+27юв248947 0.1 1007317
05:00+27юв248838 0.2 1007302
08:00+29юв247921 0.2 1009652
11:00+32ююв45615 0.0 10081002
14:00+32ююв56655 0.0 10071010
17:00+31юв56685 0.0 1005855
20:00+28вюв36875 0.0 1006343
14 мая, пт
пт1423:00+27в35921 0.1 1008306
02:00+27вюв35924 0.2 1007308
05:00+27вюв359268 0.4 1006271
08:00+29юв378394 0.9 1008641
11:00+31ююв5666100 0.4 10081112
14:00+32ююв566590 0.5 10061174
17:00+30юв567323 0.3 1005913
20:00+27вюв35895 0.4 1007239
15 мая, сб
сб1523:00+27вюв25933 0.3 1009254
02:00+27юв36914 2.1 1007372
05:00+27юв35916 0.4 1007338
08:00+28юв468410 0.9 1008728
11:00+31ююв456457 0.1 10091191
14:00+32ююв56624 0.1 10071071
17:00+30юв56695 0.0 1005936
20:00+27в35865 0.0 1007300
16 мая, вс
вс1623:00+27в249024 0.0 1008289
02:00+26юв359115 0.1 1006309
05:00+27ююв359166 0.5 1006275
08:00+28юв468499 0.8 1008640
11:00+31ююв55636 0.1 10091078
14:00+32ююв5661100 0.1 10071041
17:00+31юв46682 0.0 1006903
20:00+27в34845 0.0 1007245
17 мая, пн
пн1723:00+26в249021 0.0 1009245
02:00+27вюв249119 0.1 1007256
05:00+27юв248911 0.3 1007235
08:00+29юв358086 0.4 1008692
11:00+32ююв45659 0.0 10091081
14:00+32ююв45610 0.0 10071037
17:00+31юв45681 0.0 1005887
20:00+27вюв348714 0.0 1007213